FREGAT DEB (TANK), 37756

Orbit data source: Space-Track

FREGAT DEB (TANK), 37756 is space debris in LEO originally from a launch on Mon, 18 Jul 2011 UTC launched from the Tyuratam Missile And Space Complex (TTMTR). Debris objects in space refer to the collection of defunct objects orbiting the Earth. Examples of debris include non-operational satellites, rocket bodies, and fragments generated from explosions, collisions, or faulty payload assembly.

Loading next visibility...
Identifier
37756, 2011-037B
Orbit
LEO
Country
Flag of CISCIS
Related business
Manufacturer
Lavochkin
Mission
Spacecraft
Bus & Motor
FREGAT SBB, Unknown motor
Mass
360 kg wet, 360 kg dry
Launch date (UTC)
2011-07-18 (14 years ago)
Launch vehicle
Unknown
Launch site
Tyuratam Missile And Space Complex (TTMTR)
Object type
Payload
Rocket body
Debris
Shape & HBR
Torus, 1.9 m
Radar Cross Section
6.703 m², Large (>1 m²)

Expand to show TLE details & history
Last TLE update: 22 hours ago

TLE from 22 hours ago
0 FREGAT DEB (TANK)
1 37756U 11037B   25286.65976387  .00009448  00000-0  19244-2 0  9991
2 37756  51.4507  32.7508 1818108 243.5276  96.8084 11.44944081586957
Epoch: 2025-10-13T15:50Z
TLE epoch observation values (Epoch: 2025-10-13T15:50:03.598Z)
Latitude
0.00004°
Longitude
132.77648°
Altitude
2,374.167 km
Speed
6.571 km/s
True Right ascension
02h 11m 00s
True Declination
0° 00' 00"
Sunlit
Object was in full shadow at epoch
Visualization orbit readout
Latitude
Unknown
Longitude
Unknown
Altitude
Unknown
Speed
Unknown
Apparent Right ascension
Unknown
Apparent Declination
Unknown
Sunlit
N/A
Visualization observer readout
Local Sidereal Time
08:11:57
Azimuth
Unknown
Elevation
Unknown
Doppler factor
Unknown
Orbital elements
Apogee altitude
3,449.548 km
Perigee altitude
425.749 km
Semi-major axis
8,315.785 km
Eccentricity
0.18181
Inclination
51.4507°
RAAN
32.7508°
Arg. of periapsis
243.5276°
True anomaly
116.55581°
Mean anomaly
96.8084°
Eccentric anomaly
106.78175°
Mean motion
2.86212 °/min
Orbital period
125.78 mins
BSTAR
0.0019244
Loading maneuver chart data...
Computing Atmospheric mass density...
Loading historical data...
Loading historical data...
Loading historical data...
Loading historical data...
Loading historical data...
Loading historical data...
Loading historical data...

Documentation

Showing up to 5 results
|